SCP
0 1 1 2 2 2 1 0 0 0 0 0 0 0 0 0 0 0 0 0 0 0 0 0 0 0 0 0 0 0 0 0 0 0 0 0 0 0 0 0 0 0 0
0 0 0 2 2 1 0 0 0 0 0 0 0 0 0 0 0 0 0 0 0 0 0 0 0 0 0 0 0 0 0 0 0 0 0 0 0 0 0 0 0 0 0
0 0 0 1 2 0 0 0 0 0 0 0 0 0 0 0 0 0 0 0 0 0 0 0 0 0 0 0 0 0 0 0 0 0 0 0 0 0 0 0 0 0 0
0 0 0 0 0 0 0 0 0 0 0 0 0 0 0 0 0 0 0 0 0 0 0 0 0 0 0 0 0 0 0 0 0 0 0 0 0 0 0 0 0 0 0
0 0 0 0 0 0 0 0 0 0 0 0 0 0 0 0 0 0 0 0 0 0 0 0 0 0 0 0 0 0 0 0 0 0 0 0 0 0 0 0 0 0 0
0 0 0 0 0 0 0 0 0 0 0 0 0 0 0 0 0 0 0 0 0 0 0 0 0 0 0 0 0 0 0 0 0 0 0 0 0 0 0 0 0 0 0
0 0 0 0 0 0 0 0 0 0 0 0 0 0 0 0 0 0 0 0 0 0 0 0 0 0 0 0 0 0 0 0 0 0 0 0 0 0 0 0 0 0 0
0 0 0 0 0 0 0 0 0 0 0 0 0 0 0 0 0 0 0 0 0 0 0 0 0 0 0 0 0 0 0 0 0 0 0 0 0 0 0 0 0 0 0
-0 -0 -0 0 0 0 0 0 0 0 0 0 0 0 0 0 0 0 0 0 0 0 0 0 0 0 0 0 0 0 0 0 0 0 0 0 0 0 0 0 0 0 0
-0 0 -0 -0 -0 -0 -0 -0 -0 -0 -0 -0 0 0 0 0 0 0 0 0 0 0 0 0 0 0 0 0 0 0 0 0 0 0 0 0 0 0 0 0 0 0 0
0 0 0 -0 -0 -0 0 -0 -0 -0 0 0 0 0 0 0 0 0 0 0 0 0 0 0 0 0 0 0 0 0 0 0 0 0 0 0 0 0 0 0 0 0 0
0 0 0 0 0 0 0 0 0 0 0 0 0 0 0 0 0 0 0 0 0 0 0 0 0 0 0 0 0 0 0 0 0 0 0 0 0 0 0 0 0 0 0
0 0 0 0 0 0 0 0 0 0 0 0 0 0 0 0 0 0 0 0 0 0 0 0 0 0 0 0 0 0 0 0 0 0 0 0 0 0 0 0 0 0 0
0 0 0 0 0 0 0 0 0 0 0 0 0 0 0 0 0 0 0 0 0 0 0 0 0 0 0 0 0 0 0 0 0 0 0 0 0 0 0 0 0 0 0
0 0 0 0 0 0 0 0 0 0 0 0 0 0 0 0 0 0 0 0 0 0 0 0 0 0 0 0 0 0 0 0 0 0 0 0 0 0 0 0 0 0 0
0 0 0 0 0 0 0 0 0 0 0 0 0 0 0 0 0 0 0 0 0 0 0 0 0 0 0 0 0 0 0 0 0 0 0 0 0 0 0 0 0 0 0
0 0 0 0 0 0 0 0 0 0 0 0 0 0 0 0 0 0 0 0 0 0 0 0 0 0 0 0 0 0 0 0 0 0 0 0 0 0 0 0 0 0 0
0 0 0 0 0 0 0 0 0 0 0 0 0 0 0 0 0 0 0 0 0 0 0 0 0 0 0 0 0 0 0 0 0 0 0 0 0 0 0 0 0 0 0
0 0 0 0 0 0 0 0 0 0 0 0 0 0 0 0 0 0 0 0 0 0 0 0 0 0 0 0 0 0 0 0 0 0 0 0 0 0 0 0 0 0 0
0 0 0 0 0 0 0 0 0 0 0 0 0 0 0 0 0 0 0 0 0 0 0 0 0 0 0 0 0 0 0 0 0 0 0 0 0 0 0 0 0 0 0
0 0 0 0 0 0 0 0 0 0 0 0 0 0 0 0 0 0 0 0 0 0 0 0 0 0 0 0 0 0 0 0 0 0 0 0 0 0 0 0 0 0 0
0 0 0 0 0 0 0 0 0 0 0 0 0 0 0 0 0 0 0 0 0 0 0 0 0 0 0 0 0 0 0 0 0 0 0 0 0 0 0 0 0 0 0
0 0 0 0 0 0 0 0 0 0 0 0 0 0 0 0 0 0 0 0 0 0 0 0 0 0 0 0 0 0 0 0 0 0 0 0 0 0 0 0 0 0 0
0 0 0 0 0 0 0 0 0 0 0 0 0 0 0 0 0 0 0 0 0 0 0 0 0 0 0 0 0 0 0 0 0 0 0 0 0 0 0 0 0 0 0
0 0 0 0 0 0 0 0 0 0 0 0 0 0 0 0 0 0 0 0 0 0 0 0 0 0 0 0 0 0 0 0 0 0 0 0 0 0 0 0 0 0 0
0 0 0 0 0 0 0 0 0 0 0 0 0 0 0 0 0 0 0 0 0 0 0 0 0 0 0 0 0 0 0 0 0 0 0 0 0 0 0 0 0 0 0
Wind_Speed_500mb
77 88 95 91 85 88 90 86 84 78 77 72 69 66 66 57 51 49 48 47 44 42 39 37 34 30 26 22 18 13 10 8 10 14 21 22 18 17 16 11 6 5 8
66 64 88 97 104 99 96 97 93 87 84 79 76 70 65 56 50 50 50 50 49 46 43 41 38 33 29 24 20 18 16 16 21 22 21 18 15 15 13 10 8 6 5
40 59 76 94 108 114 109 106 100 94 89 84 77 69 65 58 58 57 53 52 50 46 43 40 35 31 26 22 20 21 21 22 25 34 19 14 13 26 16 12 9 7 8
41 42 74 89 106 117 108 105 99 97 90 84 81 73 65 69 66 53 49 49 49 47 45 42 37 33 29 26 24 21 21 22 23 29 40 28 17 20 19 16 10 9 10
45 40 64 86 95 102 104 107 102 99 85 72 56 54 60 57 47 46 45 43 43 43 40 37 35 32 29 26 23 20 19 21 21 22 24 22 23 28 15 22 16 13 11
18 15 36 47 57 69 81 91 94 79 57 46 43 45 45 44 44 43 40 37 38 40 38 36 35 33 30 27 24 23 22 20 20 22 24 24 19 18 20 17 18 16 16
34 33 32 33 36 42 55 61 53 44 36 29 25 29 41 38 38 37 32 33 38 40 38 35 34 32 29 25 23 22 20 19 18 18 19 19 20 21 20 16 17 15 20
33 28 23 23 24 31 36 31 25 22 9 8 20 26 37 39 36 34 33 33 34 33 34 38 36 33 28 25 23 22 20 18 16 17 20 19 18 19 21 20 20 19 22
59 58 52 43 35 33 11 5 7 5 6 10 20 39 39 47 45 41 36 35 35 33 35 38 38 35 30 27 23 18 18 18 19 21 19 19 18 17 17 17 20 22 17
54 47 35 20 21 6 6 10 16 19 31 5 29 38 50 47 52 40 42 43 42 38 35 35 37 36 32 25 19 19 20 17 23 20 18 17 18 18 18 17 17 19 22
27 32 22 17 22 19 29 41 33 26 39 27 60 55 53 56 47 45 45 45 43 38 34 36 37 33 30 28 27 24 21 22 22 19 17 17 16 17 19 18 18 21 22
13 6 7 19 29 39 41 44 40 43 37 45 49 44 46 45 40 39 44 44 41 36 33 35 35 36 39 33 29 18 24 22 23 22 20 19 18 19 19 20 24 23 23
13 16 20 25 26 32 35 35 36 37 38 39 36 36 36 33 33 36 41 41 39 35 41 45 45 42 36 33 27 26 26 25 25 23 21 20 18 19 19 20 22 24 25
37 32 31 36 35 35 33 35 34 30 27 25 26 30 30 29 29 32 35 39 44 46 46 43 41 44 47 37 41 31 29 27 25 22 18 16 17 17 18 17 19 22 26
37 42 35 38 48 47 45 42 36 34 34 33 30 32 34 32 31 34 38 39 37 40 42 47 47 47 43 42 33 25 28 24 21 19 13 13 14 16 16 16 17 18 20
55 50 42 43 49 54 52 49 41 37 39 39 39 39 39 36 35 28 29 37 40 47 47 47 41 39 33 30 18 23 24 20 18 15 13 13 15 15 15 15 12 14 15
62 49 48 48 51 55 52 50 40 38 44 45 45 44 44 42 43 41 40 43 46 44 39 37 34 30 31 36 28 27 25 23 22 18 16 15 15 15 11 10 11 11 12
56 48 48 52 51 53 53 51 49 46 47 45 48 48 45 43 45 44 43 43 42 40 35 33 31 31 31 29 32 23 30 27 24 22 22 20 16 11 11 7 6 8 5
54 46 46 48 53 53 49 48 51 48 50 51 50 50 45 39 38 39 42 42 41 40 37 33 31 31 29 28 27 26 31 28 27 26 24 20 16 11 8 6 8 6 5
43 50 46 50 53 51 47 48 48 44 47 48 47 47 43 39 36 36 38 38 39 39 38 36 35 32 32 32 28 25 28 30 28 27 22 20 16 7 6 8 7 4 2
58 60 58 54 47 41 40 40 40 37 38 38 37 39 41 40 38 39 39 38 41 42 41 39 37 37 35 33 29 28 29 33 28 24 19 17 14 10 7 9 8 5 2
69 65 58 49 43 40 37 34 34 32 36 36 35 38 41 43 43 44 42 43 45 47 46 44 44 42 40 38 37 33 27 28 22 18 16 17 15 13 11 9 6 5 4
72 60 51 45 42 39 36 36 35 33 34 38 38 38 40 43 43 45 46 49 51 53 50 47 48 46 42 41 37 30 27 27 22 20 17 16 15 14 14 12 10 7 9
62 55 50 45 42 39 34 30 28 27 26 27 31 37 40 41 43 48 52 52 53 53 52 52 51 45 41 38 34 32 33 29 28 23 19 19 17 17 16 13 13 14 13
61 55 47 44 40 35 32 28 27 30 35 31 33 35 38 40 44 46 45 46 46 47 48 49 47 43 41 36 29 31 35 29 27 26 23 21 23 21 19 18 18 18 17
58 51 48 42 38 36 29 25 24 29 33 37 39 40 40 39 39 41 42 40 35 35 39 37 32 30 26 25 26 27 28 33 33 33 29 26 25 24 22 21 19 18 16
Wind_Direction_500mb
244 223 223 221 225 227 225 222 215 213 210 210 208 214 215 215 218 220 221 222 222 223 224 223 223 221 221 220 221 225 233 229 204 190 146 139 155 173 180 192 218 287 324
252 231 223 218 220 223 226 221 215 212 210 215 217 218 216 219 225 222 219 220 222 222 222 222 221 222 221 219 218 216 209 204 192 183 176 145 152 174 179 200 216 238 312
279 240 226 222 220 222 223 218 219 212 210 214 213 213 216 220 220 218 217 217 220 220 219 219 219 221 221 220 223 221 215 211 203 202 193 175 188 165 170 192 207 228 271
296 259 235 221 222 220 220 221 218 212 211 211 210 213 220 222 219 218 217 218 219 219 218 217 217 218 221 223 225 227 223 220 217 204 219 234 210 187 182 190 209 222 248
295 269 238 230 215 213 213 215 212 205 202 203 211 222 225 222 221 218 218 220 222 219 219 218 219 221 224 228 229 231 229 227 227 231 236 229 216 208 192 197 195 208 237
35 151 191 196 193 196 197 200 197 192 194 203 214 227 233 225 224 225 223 223 225 226 224 223 223 225 226 231 234 235 234 234 234 232 231 236 231 232 226 209 204 219 208
85 108 128 143 156 167 179 183 178 179 189 203 228 242 238 239 235 234 235 238 232 228 227 226 225 225 227 229 234 239 245 247 239 234 236 238 237 244 244 236 228 215 190
93 100 118 137 151 160 158 154 158 171 188 244 258 251 244 241 240 240 259 252 241 233 233 231 230 228 226 229 233 239 244 245 241 240 240 236 233 235 240 238 237 218 220
112 110 108 106 110 117 4 351 95 0 314 326 293 250 240 240 232 242 241 241 237 233 230 230 230 229 224 224 228 236 244 241 242 240 238 242 247 243 244 239 238 238 235
131 140 144 146 148 163 196 271 256 259 251 213 247 236 237 236 235 237 232 229 232 236 235 235 233 227 223 220 227 238 242 248 255 248 245 248 253 259 259 254 256 256 256
157 155 170 196 210 211 209 207 213 228 226 218 220 224 231 229 232 229 225 223 229 233 239 239 233 227 226 218 224 240 247 243 250 252 254 256 258 260 263 269 268 268 269
104 84 242 234 230 219 214 208 206 212 218 217 226 230 237 232 226 219 218 223 227 230 236 243 237 230 225 231 240 236 243 242 246 251 252 256 257 260 264 270 270 273 274
309 293 256 254 237 223 211 203 207 209 210 217 230 232 231 235 233 230 228 228 231 236 252 241 232 230 240 235 227 240 235 235 242 249 259 264 269 268 267 269 275 277 275
250 263 242 235 229 222 218 218 215 225 232 240 248 249 253 253 250 244 237 250 256 252 237 232 236 243 243 234 229 232 238 240 247 249 255 264 268 272 275 273 274 277 275
255 276 257 234 224 216 217 217 223 228 232 233 236 236 239 243 244 245 245 247 241 239 239 247 255 254 239 228 205 217 238 241 244 253 257 263 269 276 278 278 273 273 274
262 270 260 238 220 218 221 219 220 229 230 232 233 230 229 232 232 242 246 237 230 248 249 256 254 242 233 220 179 235 243 243 248 257 262 270 282 290 283 275 282 284 274
256 251 250 236 227 225 222 221 217 230 228 230 228 230 234 235 237 237 236 240 251 252 259 260 249 240 233 232 200 216 241 245 256 265 272 280 279 280 285 291 307 284 267
257 253 241 228 225 221 219 221 221 228 229 232 231 233 237 241 241 243 246 251 251 253 251 247 243 245 235 225 213 202 237 250 258 269 278 275 271 271 262 266 273 263 269
259 245 212 215 216 207 211 216 222 230 232 233 235 235 236 242 245 249 253 250 250 245 243 243 242 232 229 234 228 230 236 244 258 267 268 265 264 252 247 234 231 248 266
228 209 200 198 196 199 209 217 223 226 233 236 236 233 234 238 245 250 252 251 249 245 241 236 230 230 235 229 227 232 240 245 255 265 262 252 244 223 223 211 208 214 253
195 192 188 189 192 200 208 213 219 226 234 236 235 230 233 236 240 246 246 247 244 240 235 230 226 229 229 234 227 229 234 250 256 254 241 228 211 198 204 205 184 178 215
190 189 190 188 194 202 211 219 228 232 234 232 227 227 233 238 241 247 245 241 238 234 229 224 223 223 228 233 236 230 236 233 234 234 222 211 194 190 198 203 196 187 207
190 188 188 190 202 211 219 231 237 239 238 229 226 228 234 239 240 244 242 238 235 229 225 223 224 225 230 234 234 239 234 228 219 212 208 205 198 199 204 202 201 201 191
189 189 193 201 210 212 215 220 233 242 241 240 224 226 232 235 238 240 239 238 233 228 226 226 225 228 233 231 226 227 228 218 210 210 213 210 206 205 208 214 203 192 188
193 199 204 205 207 210 214 221 233 242 242 233 229 228 229 234 237 241 242 241 239 240 237 233 234 235 234 229 225 231 230 228 219 221 223 222 214 210 209 213 208 199 202
201 204 206 207 209 215 219 228 243 250 244 236 231 231 235 237 237 236 234 232 234 237 235 237 242 237 221 215 217 218 215 214 218 223 225 223 215 211 212 211 206 202 203
Wind_Speed_850mb
77 88 95 91 85 88 90 86 84 78 77 72 69 66 66 57 51 49 48 47 44 42 39 37 34 30 26 22 18 13 10 8 10 14 21 22 18 17 16 11 6 5 8
66 64 88 97 104 99 96 97 93 87 84 79 76 70 65 56 50 50 50 50 49 46 43 41 38 33 29 24 20 18 16 16 21 22 21 18 15 15 13 10 8 6 5
40 59 76 94 108 114 109 106 100 94 89 84 77 69 65 58 58 57 53 52 50 46 43 40 35 31 26 22 20 21 21 22 25 34 19 14 13 26 16 12 9 7 8
41 42 74 89 106 117 108 105 99 97 90 84 81 73 65 69 66 53 49 49 49 47 45 42 37 33 29 26 24 21 21 22 23 29 40 28 17 20 19 16 10 9 10
45 40 64 86 95 102 104 107 102 99 85 72 56 54 60 57 47 46 45 43 43 43 40 37 35 32 29 26 23 20 19 21 21 22 24 22 23 28 15 22 16 13 11
18 15 36 47 57 69 81 91 94 79 57 46 43 45 45 44 44 43 40 37 38 40 38 36 35 33 30 27 24 23 22 20 20 22 24 24 19 18 20 17 18 16 16
34 33 32 33 36 42 55 61 53 44 36 29 25 29 41 38 38 37 32 33 38 40 38 35 34 32 29 25 23 22 20 19 18 18 19 19 20 21 20 16 17 15 20
33 28 23 23 24 31 36 31 25 22 9 8 20 26 37 39 36 34 33 33 34 33 34 38 36 33 28 25 23 22 20 18 16 17 20 19 18 19 21 20 20 19 22
59 58 52 43 35 33 11 5 7 5 6 10 20 39 39 47 45 41 36 35 35 33 35 38 38 35 30 27 23 18 18 18 19 21 19 19 18 17 17 17 20 22 17
54 47 35 20 21 6 6 10 16 19 31 5 29 38 50 47 52 40 42 43 42 38 35 35 37 36 32 25 19 19 20 17 23 20 18 17 18 18 18 17 17 19 22
27 32 22 17 22 19 29 41 33 26 39 27 60 55 53 56 47 45 45 45 43 38 34 36 37 33 30 28 27 24 21 22 22 19 17 17 16 17 19 18 18 21 22
13 6 7 19 29 39 41 44 40 43 37 45 49 44 46 45 40 39 44 44 41 36 33 35 35 36 39 33 29 18 24 22 23 22 20 19 18 19 19 20 24 23 23
13 16 20 25 26 32 35 35 36 37 38 39 36 36 36 33 33 36 41 41 39 35 41 45 45 42 36 33 27 26 26 25 25 23 21 20 18 19 19 20 22 24 25
37 32 31 36 35 35 33 35 34 30 27 25 26 30 30 29 29 32 35 39 44 46 46 43 41 44 47 37 41 31 29 27 25 22 18 16 17 17 18 17 19 22 26
37 42 35 38 48 47 45 42 36 34 34 33 30 32 34 32 31 34 38 39 37 40 42 47 47 47 43 42 33 25 28 24 21 19 13 13 14 16 16 16 17 18 20
55 50 42 43 49 54 52 49 41 37 39 39 39 39 39 36 35 28 29 37 40 47 47 47 41 39 33 30 18 23 24 20 18 15 13 13 15 15 15 15 12 14 15
62 49 48 48 51 55 52 50 40 38 44 45 45 44 44 42 43 41 40 43 46 44 39 37 34 30 31 36 28 27 25 23 22 18 16 15 15 15 11 10 11 11 12
56 48 48 52 51 53 53 51 49 46 47 45 48 48 45 43 45 44 43 43 42 40 35 33 31 31 31 29 32 23 30 27 24 22 22 20 16 11 11 7 6 8 5
54 46 46 48 53 53 49 48 51 48 50 51 50 50 45 39 38 39 42 42 41 40 37 33 31 31 29 28 27 26 31 28 27 26 24 20 16 11 8 6 8 6 5
43 50 46 50 53 51 47 48 48 44 47 48 47 47 43 39 36 36 38 38 39 39 38 36 35 32 32 32 28 25 28 30 28 27 22 20 16 7 6 8 7 4 2
58 60 58 54 47 41 40 40 40 37 38 38 37 39 41 40 38 39 39 38 41 42 41 39 37 37 35 33 29 28 29 33 28 24 19 17 14 10 7 9 8 5 2
69 65 58 49 43 40 37 34 34 32 36 36 35 38 41 43 43 44 42 43 45 47 46 44 44 42 40 38 37 33 27 28 22 18 16 17 15 13 11 9 6 5 4
72 60 51 45 42 39 36 36 35 33 34 38 38 38 40 43 43 45 46 49 51 53 50 47 48 46 42 41 37 30 27 27 22 20 17 16 15 14 14 12 10 7 9
62 55 50 45 42 39 34 30 28 27 26 27 31 37 40 41 43 48 52 52 53 53 52 52 51 45 41 38 34 32 33 29 28 23 19 19 17 17 16 13 13 14 13
61 55 47 44 40 35 32 28 27 30 35 31 33 35 38 40 44 46 45 46 46 47 48 49 47 43 41 36 29 31 35 29 27 26 23 21 23 21 19 18 18 18 17
58 51 48 42 38 36 29 25 24 29 33 37 39 40 40 39 39 41 42 40 35 35 39 37 32 30 26 25 26 27 28 33 33 33 29 26 25 24 22 21 19 18 16
Wind_Direction_850mb
244 223 223 221 225 227 225 222 215 213 210 210 208 214 215 215 218 220 221 222 222 223 224 223 223 221 221 220 221 225 233 229 204 190 146 139 155 173 180 192 218 287 324
252 231 223 218 220 223 226 221 215 212 210 215 217 218 216 219 225 222 219 220 222 222 222 222 221 222 221 219 218 216 209 204 192 183 176 145 152 174 179 200 216 238 312
279 240 226 222 220 222 223 218 219 212 210 214 213 213 216 220 220 218 217 217 220 220 219 219 219 221 221 220 223 221 215 211 203 202 193 175 188 165 170 192 207 228 271
296 259 235 221 222 220 220 221 218 212 211 211 210 213 220 222 219 218 217 218 219 219 218 217 217 218 221 223 225 227 223 220 217 204 219 234 210 187 182 190 209 222 248
295 269 238 230 215 213 213 215 212 205 202 203 211 222 225 222 221 218 218 220 222 219 219 218 219 221 224 228 229 231 229 227 227 231 236 229 216 208 192 197 195 208 237
35 151 191 196 193 196 197 200 197 192 194 203 214 227 233 225 224 225 223 223 225 226 224 223 223 225 226 231 234 235 234 234 234 232 231 236 231 232 226 209 204 219 208
85 108 128 143 156 167 179 183 178 179 189 203 228 242 238 239 235 234 235 238 232 228 227 226 225 225 227 229 234 239 245 247 239 234 236 238 237 244 244 236 228 215 190
93 100 118 137 151 160 158 154 158 171 188 244 258 251 244 241 240 240 259 252 241 233 233 231 230 228 226 229 233 239 244 245 241 240 240 236 233 235 240 238 237 218 220
112 110 108 106 110 117 4 351 95 0 314 326 293 250 240 240 232 242 241 241 237 233 230 230 230 229 224 224 228 236 244 241 242 240 238 242 247 243 244 239 238 238 235
131 140 144 146 148 163 196 271 256 259 251 213 247 236 237 236 235 237 232 229 232 236 235 235 233 227 223 220 227 238 242 248 255 248 245 248 253 259 259 254 256 256 256
157 155 170 196 210 211 209 207 213 228 226 218 220 224 231 229 232 229 225 223 229 233 239 239 233 227 226 218 224 240 247 243 250 252 254 256 258 260 263 269 268 268 269
104 84 242 234 230 219 214 208 206 212 218 217 226 230 237 232 226 219 218 223 227 230 236 243 237 230 225 231 240 236 243 242 246 251 252 256 257 260 264 270 270 273 274
309 293 256 254 237 223 211 203 207 209 210 217 230 232 231 235 233 230 228 228 231 236 252 241 232 230 240 235 227 240 235 235 242 249 259 264 269 268 267 269 275 277 275
250 263 242 235 229 222 218 218 215 225 232 240 248 249 253 253 250 244 237 250 256 252 237 232 236 243 243 234 229 232 238 240 247 249 255 264 268 272 275 273 274 277 275
255 276 257 234 224 216 217 217 223 228 232 233 236 236 239 243 244 245 245 247 241 239 239 247 255 254 239 228 205 217 238 241 244 253 257 263 269 276 278 278 273 273 274
262 270 260 238 220 218 221 219 220 229 230 232 233 230 229 232 232 242 246 237 230 248 249 256 254 242 233 220 179 235 243 243 248 257 262 270 282 290 283 275 282 284 274
256 251 250 236 227 225 222 221 217 230 228 230 228 230 234 235 237 237 236 240 251 252 259 260 249 240 233 232 200 216 241 245 256 265 272 280 279 280 285 291 307 284 267
257 253 241 228 225 221 219 221 221 228 229 232 231 233 237 241 241 243 246 251 251 253 251 247 243 245 235 225 213 202 237 250 258 269 278 275 271 271 262 266 273 263 269
259 245 212 215 216 207 211 216 222 230 232 233 235 235 236 242 245 249 253 250 250 245 243 243 242 232 229 234 228 230 236 244 258 267 268 265 264 252 247 234 231 248 266
228 209 200 198 196 199 209 217 223 226 233 236 236 233 234 238 245 250 252 251 249 245 241 236 230 230 235 229 227 232 240 245 255 265 262 252 244 223 223 211 208 214 253
195 192 188 189 192 200 208 213 219 226 234 236 235 230 233 236 240 246 246 247 244 240 235 230 226 229 229 234 227 229 234 250 256 254 241 228 211 198 204 205 184 178 215
190 189 190 188 194 202 211 219 228 232 234 232 227 227 233 238 241 247 245 241 238 234 229 224 223 223 228 233 236 230 236 233 234 234 222 211 194 190 198 203 196 187 207
190 188 188 190 202 211 219 231 237 239 238 229 226 228 234 239 240 244 242 238 235 229 225 223 224 225 230 234 234 239 234 228 219 212 208 205 198 199 204 202 201 201 191
189 189 193 201 210 212 215 220 233 242 241 240 224 226 232 235 238 240 239 238 233 228 226 226 225 228 233 231 226 227 228 218 210 210 213 210 206 205 208 214 203 192 188
193 199 204 205 207 210 214 221 233 242 242 233 229 228 229 234 237 241 242 241 239 240 237 233 234 235 234 229 225 231 230 228 219 221 223 222 214 210 209 213 208 199 202
201 204 206 207 209 215 219 228 243 250 244 236 231 231 235 237 237 236 234 232 234 237 235 237 242 237 221 215 217 218 215 214 218 223 225 223 215 211 212 211 206 202 203